This demonstration page uses our WeatherBlox Daily Observations layout. Learn more.

Left ArrowRight Arrow

Hourly Observations for January 2, 2017

Temp ( °F °C ) Dew Point ( °F °C ) Humidity (%) Winds ( mph kmh ) Pressure ( in mb ) Visibility ( mi km ) Precip ( " mm )
12:59 am 00:59 Cloudy 50 10 44 6.7 80 80 ESE 5 7 30.33 1027 10 16 0.00 0.00
1:59 am 01:59 Cloudy with Light Rain 50 10 47 8.3 89 89 ESE 3 6 30.32 1027 7 11 0.03 0.76
2:59 am 02:59 Cloudy with Light Rain 50 10 47 8.3 89 89 E 3 6 30.32 1027 3 5 0.06 1.52
3:07 am 03:07 Cloudy with Rain 50 10 47 8.3 89 89 E 3 6 30.30 1026 3 5 0.02 0.51
3:29 am 03:29 Cloudy with Light Rain 50 10 48 8.9 93 93 ENE 3 6 30.30 1026 3 5 0.06 1.52
3:38 am 03:38 Cloudy with Rain 50 10 48 8.9 93 93 NE 5 7 30.30 1026 3 4 0.09 2.29
3:46 am 03:46 Cloudy with Light Rain 49 9.4 48 8.9 97 97 NE 6 9 30.30 1026 3 4 0.10 2.54
3:59 am 03:59 Cloudy with Light Rain 49 9.4 47 8.3 93 93 NNE 5 7 30.31 1026 2 3 0.12 3.05
4:03 am 04:03 Cloudy with Rain 49 9.4 47 8.3 93 93 NNE 5 7 30.30 1026 2 3 0.01 0.25
4:20 am 04:20 Cloudy with Rain 49 9.4 47 8.3 93 93 NE 6 9 30.30 1026 3 4 0.07 1.78
4:24 am 04:24 Cloudy with Rain 49 9.4 47 8.3 93 93 ENE 5 7 30.30 1026 3 5 0.08 2.03
4:33 am 04:33 Cloudy with Light Rain 49 9.4 47 8.3 93 93 NE 5 7 30.30 1026 3 5 0.11 2.79
4:45 am 04:45 Cloudy with Rain 49 9.4 47 8.3 93 93 ENE 7 11 30.30 1026 3 4 0.14 3.56
4:59 am 04:59 Cloudy with Light Rain 49 9.4 47 8.3 93 93 ENE 7 11 30.28 1025 3 5 0.18 4.57
5:31 am 05:31 Cloudy with Light Rain 49 9.4 47 8.3 93 93 ENE 9 15 30.27 1025 3 5 0.06 1.52
5:59 am 05:59 Cloudy with Rain 50 10 48 8.9 93 93 E 10 17 30.27 1025 3 5 0.16 4.06
6:07 am 06:07 Cloudy with Rain 50 10 48 8.9 93 93 E 10 17 30.27 1025 3 4 0.04 1.02
6:18 am 06:18 Cloudy with Rain 51 10.6 50 10 96 96 ENE 8 13 30.27 1025 3 5 0.09 2.29
6:30 am 06:30 Cloudy with Heavy Rain 51 10.6 50 10 96 96 NE 6 9 30.27 1025 2 3 0.16 4.06
6:41 am 06:41 Cloudy with Rain 52 11.1 50 10 93 93 E 9 15 30.27 1025 3 4 0.23 5.84
6:54 am 06:54 Cloudy with Light Rain 52 11 52 11 100 100 ESE 10 17 30.27 1025 3 5 0.31 7.87
6:59 am 06:59 Cloudy with Rain 52 11.1 51 10.6 97 97 ESE 9 15 30.27 1025 4 6 0.33 8.38
7:59 am 07:59 Cloudy with Light Rain 54 12.2 52 11.1 93 93 E 7 11 30.25 1025 5 8 0.09 2.29
8:13 am 08:13 Cloudy with Rain 54 12.2 53 11.7 97 97 Calm 30.27 1025 3 4 0.04 1.02
8:21 am 08:21 Cloudy with Rain 53 11.7 52 11.1 96 96 NNW 5 7 30.27 1025 3 5 0.07 1.78
8:37 am 08:37 Cloudy with Light Rain 53 11.7 51 10.6 93 93 NE 8 13 30.27 1025 3 4 0.10 2.54
8:59 am 08:59 Cloudy with Light Rain 53 11.7 52 11.1 96 96 NE 5 7 30.26 1025 3 5 0.15 3.81
9:07 am 09:07 Cloudy with Light Rain 53 11.7 52 11.1 96 96 NE 5 7 30.27 1025 3 4 0.01 0.25
9:33 am 09:33 Cloudy with Light Rain 53 11.7 52 11.1 96 96 ENE 8 13 30.27 1025 3 4 0.05 1.27
9:49 am 09:49 Cloudy with Rain 51 10.6 49 9.4 92 92 NNW 14 22 30.27 1025 2 2 0.08 2.03
9:59 am 09:59 Cloudy with Light Rain 50 10 49 9.4 96 96 N 12 19 30.27 1025 2 2 0.11 2.79
10:06 am 10:06 Cloudy with Rain 51 10.6 49 9.4 92 92 N 12 19 30.27 1025 2 3 0.02 0.51
10:13 am 10:13 Cloudy with Rain 51 10.6 50 10 96 96 N 10 17 30.27 1025 1 2 0.04 1.02
10:26 am 10:26 Cloudy with Light Rain 52 11.1 50 10 93 93 NNE 13 20 30.27 1025 2 3 0.08 2.03
10:43 am 10:43 Cloudy with Light Rain 51 10.6 50 10 96 96 NNE 9 15 30.24 1024 3 5 0.13 3.30
10:59 am 10:59 Cloudy with Light Rain 51 10.6 50 10 96 96 NE 10 17 30.23 1024 3 5 0.14 3.56
12:46 pm 12:46 Cloudy with Light Rain 52 11.1 50 10 93 93 N 10 17 30.18 1022 2 2 0.01 0.25
1:38 pm 13:38 Cloudy with Light Rain 51 10.6 49 9.4 92 92 N 6 9 30.18 1022 3 5 0.04 1.02
1:57 pm 13:57 Cloudy with Mist and Fog 52 11 48 9 88 88 N 7 11 30.15 1021 3 4 0.04 1.02
1:59 pm 13:59 Cloudy with Mist and Fog 51 10.6 49 9.4 92 92 N 8 13 30.16 1021 3 5 0.04 1.02
2:33 pm 14:33 Cloudy with Light Rain 51 10.6 49 9.4 92 92 undefined N/A 30.15 1021 3 4 0.01 0.25
2:59 pm 14:59 Cloudy with Light Rain 50 10 49 9.4 96 96 undefined N/A 30.16 1021 3 4 0.03 0.76
3:08 pm 15:08 Cloudy with Light Rain 50 10 49 9.4 96 96 undefined N/A 30.18 1022 3 5 0.00 0.03
3:19 pm 15:19 Cloudy with Light Rain 50 10 48 8.9 93 93 N 9 15 30.18 1022 3 4 0.01 0.25
3:44 pm 15:44 Cloudy with Light Rain 50 10 48 8.9 93 93 VRB 3 6 30.18 1022 4 6 0.03 0.76
3:59 pm 15:59 Cloudy with Light Rain 50 10 48 8.9 93 93 N 6 9 30.18 1022 4 6 0.03 0.76
4:14 pm 16:14 Cloudy with Mist and Fog 50 10 48 8.9 93 93 NNW 6 9 30.18 1022 6 10 0.01 0.25
4:59 pm 16:59 Cloudy with Mist and Fog 50 10 47 8.3 89 89 NNW 10 17 30.19 1022 3 5 0.01 0.25
5:08 pm 17:08 Cloudy with Mist and Fog 50 10 48 8.9 93 93 N 7 11 30.18 1022 2 3 0.00 0.00
5:39 pm 17:39 Cloudy with Mist and Fog 50 10 48 8.9 93 93 NNW 6 9 30.21 1023 2 3 0.00 0.00
5:46 pm 17:46 Cloudy with Mist and Fog 50 10 48 8.9 93 93 N 6 9 30.21 1023 2 2 0.00 0.00
5:54 pm 17:54 Cloudy with Mist and Fog 50 10 48 9 94 94 N 7 11 30.18 1022 2 3 0.00 0.00
5:59 pm 17:59 Cloudy with Mist and Fog 50 10 48 8.9 93 93 N 6 9 30.19 1022 3 4 0.00 0.00
6:06 pm 18:06 Cloudy with Mist and Fog 50 10 48 8.9 93 93 N 6 9 30.18 1022 4 6 0.00 0.00
6:59 pm 18:59 Cloudy with Mist and Fog 49 9.4 48 8.9 97 97 N 7 11 30.18 1022 3 5 0.00 0.00
7:34 pm 19:34 Cloudy with Mist and Fog 49 9.4 47 8.3 93 93 N 7 11 30.18 1022 2 3 0.00 0.00
7:47 pm 19:47 Cloudy with Mist and Fog 49 9.4 47 8.3 93 93 N 6 9 30.18 1022 2 3 0.00 0.00
7:57 pm 19:57 Cloudy with Mist and Fog 48 9 46 8 94 94 NNW 6 9 30.18 1022 2 3 0.00 0.00
7:59 pm 19:59 Cloudy with Mist and Fog 49 9.4 47 8.3 93 93 NNW 6 9 30.19 1022 2 2 0.00 0.00
8:48 pm 20:48 Cloudy with Mist and Fog 49 9.4 47 8.3 93 93 NNW 7 11 30.18 1022 2 3 0.00 0.00
8:59 pm 20:59 Cloudy with Mist and Fog 49 9.4 47 8.3 93 93 NW 8 13 30.19 1022 2 3 0.00 0.00
9:16 pm 21:16 Cloudy with Mist and Fog 49 9.4 47 8.3 93 93 NNW 6 9 30.18 1022 2 3 0.00 0.00
9:26 pm 21:26 Cloudy with Mist and Fog 49 9.4 47 8.3 93 93 NNW 6 9 30.18 1022 2 2 0.00 0.00
9:33 pm 21:33 Cloudy with Mist and Fog 49 9.4 47 8.3 93 93 NW 5 7 30.18 1022 2 3 0.00 0.00
9:45 pm 21:45 Cloudy with Mist and Fog 49 9.4 47 8.3 93 93 NNW 7 11 30.18 1022 2 3 0.00 0.00
9:59 pm 21:59 Cloudy with Mist and Fog 49 9.4 47 8.3 93 93 N 6 9 30.16 1021 2 3 0.00 0.00
10:07 pm 22:07 Cloudy with Mist and Fog 49 9.4 47 8.3 93 93 N 6 9 30.15 1021 2 3 0.00 0.00
10:44 pm 22:44 Cloudy with Mist and Fog 49 9.4 47 8.3 93 93 N 5 7 30.15 1021 3 5 0.00 0.00
10:56 pm 22:56 Cloudy with Mist and Fog 48 9 46 8 94 94 N 6 9 30.15 1021 3 4 0.00 0.00
10:59 pm 22:59 Cloudy with Mist and Fog 49 9.4 47 8.3 93 93 N 7 11 30.14 1021 3 4 0.00 0.00
11:44 pm 23:44 Cloudy with Mist and Fog 48 8.9 46 7.8 93 93 N 8 13 30.15 1021 3 5 0.00 0.00

Powered by AerisWeather